Location: Vancouver
(49.2500°N, 123.1330°W)
Time: 02:19:06
(UTC-07:00)

deb Explorer IX - Visible Passes

Search period start: 22 July 2014 00:00
Search period end: 01 August 2014 00:00
Orbit: 554 x 1224 km, 38.8° (Epoch: 19 July)

Date Brightness Start Highest point End Pass type
(mag) Time Alt. Az. Time Alt. Az. Time Alt. Az.
22 Jul ? 00:11:06 10° WSW 00:15:39 17° SW 00:16:17 17° SSW visible
22 Jul ? 22:19:02 10° WSW 22:25:42 30° SSW 22:31:10 14° SSE visible
23 Jul ? 00:09:34 10° WSW 00:13:11 14° SW 00:13:51 14° SSW visible
23 Jul ? 22:16:57 10° WSW 22:23:20 27° SSW 22:28:47 13° SSE visible
24 Jul ? 00:08:44 10° SW 00:10:42 11° SW 00:11:28 11° SW visible
24 Jul ? 22:14:55 10° WSW 22:20:57 24° SSW 22:26:26 12° SSE visible
25 Jul ? 22:12:58 10° WSW 22:18:32 21° SSW 22:24:04 10° SSE visible
26 Jul ? 22:11:11 10° WSW 22:16:06 18° SSW 22:21:03 10° S visible
27 Jul ? 22:09:37 10° WSW 22:13:40 15° SW 22:17:44 10° S visible
28 Jul ? 22:08:34 10° WSW 22:11:12 12° SW 22:13:51 10° SSW visible
